EDT,Max TemperatureF,Mean TemperatureF,Min TemperatureF,Max Dew PointF,MeanDew PointF,Min DewpointF,Max Humidity, Mean Humidity, Min Humidity, Max Sea Level PressureIn, Mean Sea Level PressureIn, Min Sea Level PressureIn, Max VisibilityMiles, Mean VisibilityMiles, Min VisibilityMiles, Max Wind SpeedMPH, Mean Wind SpeedMPH, Max Gust SpeedMPH,PrecipitationIn, CloudCover, Events, WindDirDegrees
2013-6-1,79,70,60,64,59,57,97,71,47,30.19,30.14,30.08,10,10,5,12,2,18,0.04,5,Rain,142
2013-6-2,72,68,63,69,65,62,99,93,75,30.09,30.02,29.96,10,8,1,6,1,,0.58,7,Rain,65
2013-6-3,78,68,58,64,59,54,99,76,43,30.04,29.98,29.93,10,10,3,13,2,17,0.08,4,,323
2013-6-4,63,57,53,63,55,52,97,96,94,30.11,30.07,30.04,10,3,0,0,0,,0.01,6,Fog,-1
2013-6-5,81,72,62,62,61,58,97,68,49,30.09,30.03,29.98,10,9,2,13,4,21,0.68,5,Rain,188
2013-6-6,76,68,60,68,62,60,98,86,60,30.02,29.91,29.83,10,10,2,8,1,,0.32,6,Rain,120
2013-6-7,80,71,62,66,62,56,98,83,43,29.92,29.80,29.75,10,8,2,10,1,20,0.02,6,Rain,330
2013-6-8,79,69,59,62,59,54,98,77,42,30.16,30.03,29.91,10,9,4,9,1,,0.02,5,Rain,271
2013-6-9,81,68,56,66,61,56,98,86,51,30.20,30.14,30.07,10,7,1,10,1,20,0.02,5,Rain,120
2013-6-10,77,70,63,66,61,52,98,80,42,30.08,30.03,29.98,10,9,2,13,2,,0.02,5,Rain,226
2013-6-11,82,72,61,63,59,54,97,70,37,30.11,30.05,30.02,10,9,0,12,3,18,0.00,2,Fog-Rain,336
2013-6-12,88,73,58,71,63,57,97,79,39,30.14,30.09,30.03,10,8,0,12,1,16,0.02,2,Fog,337
2013-6-13,85,72,60,68,63,59,97,81,46,30.05,29.94,29.81,10,7,0,20,3,29,0.01,3,Fog-Rain,266
2013-6-14,79,66,52,62,53,46,97,67,31,30.12,30.00,29.91,10,9,2,9,2,,0.01,0,,336
2013-6-15,80,64,48,60,54,48,97,72,40,30.22,30.16,30.10,10,9,0,5,0,,0.01,2,Fog,88
2013-6-16,81,68,54,64,58,54,97,73,41,30.23,30.15,30.08,10,8,0,7,0,,0.02,3,Fog-Rain,113
2013-6-17,78,71,64,67,64,61,97,84,63,30.12,30.08,30.02,10,8,1,5,0,,0.01,7,Rain,50
2013-6-18,73,68,62,68,64,61,98,91,72,30.03,29.95,29.91,10,8,2,9,1,17,0.00,6,Rain,4
2013-6-19,80,68,57,64,60,55,96,79,42,30.18,30.06,30.00,10,9,0,5,0,,0.01,4,Fog,254
2013-6-20,79,68,58,64,60,56,97,80,48,30.29,30.23,30.17,10,7,0,7,0,,0.01,5,Fog,133
2013-6-21,78,70,62,64,62,58,97,81,51,30.32,30.28,30.23,10,7,2,6,0,,0.00,6,Rain,178
2013-6-22,82,70,58,64,59,55,97,77,40,30.32,30.25,30.17,10,7,0,6,0,,0.01,4,Fog,138
2013-6-23,79,68,57,66,60,56,97,80,49,30.29,30.23,30.18,10,7,0,7,0,,0.00,5,Fog-Rain,186
2013-6-24,82,72,63,72,64,61,96,80,52,30.29,30.23,30.15,10,7,0,5,0,,0.00,5,Fog-Rain,143
2013-6-25,79,70,60,68,63,60,97,86,54,30.24,30.18,30.11,10,7,0,10,0,,0.01,5,Fog-Rain,260
2013-6-26,82,72,62,68,64,61,98,85,56,30.15,30.08,30.00,10,6,0,7,0,,0.00,5,Fog-Rain,78
2013-6-27,82,73,64,71,65,62,97,82,60,30.06,29.95,29.87,10,8,2,7,1,,0.00,4,Rain,338
2013-6-28,85,73,61,70,64,58,96,80,39,29.92,29.83,29.73,10,7,0,13,1,24,0.01,4,Fog-Rain,313
2013-6-29,80,70,60,65,59,52,99,74,38,29.81,29.76,29.73,10,8,0,8,1,,0.00,3,Fog,314
2013-6-30,81,68,54,64,58,53,98,77,41,29.87,29.82,29.79,10,8,0,6,0,,0.00,4,Fog,148